This is the latest recevied weather packets stored in our database for station/object IA5FYI-13. If no packets are shown the sender has not sent any weather packets the latest 10 day(s).
| Time | Temp. | Humidity | Pressure | Rain* | Wind** | Luminosity | Snow |
|---|---|---|---|---|---|---|---|
| 1777465509 | 22.22° C | 44% | 1013.6 hPa | 0 mm | - | - | - |
| 1777465214 | 22.78° C | 39% | 1013.6 hPa | 0 mm | - | - | - |
| 1777464614 | 22.22° C | 39% | 1013.6 hPa | 0 mm | - | - | - |
| 1777462509 | 22.22° C | 42% | 1013.2 hPa | 0 mm | - | - | - |
| 1777462228 | 22.22° C | 41% | 1013.6 hPa | 0 mm | - | - | - |
| 1777461909 | 22.22° C | 39% | 1013.6 hPa | 0 mm | - | - | - |
| 1777461613 | 22.22° C | 40% | 1013.6 hPa | 0 mm | - | - | - |
| 1777461313 | 22.22° C | 39% | 1013.6 hPa | 0 mm | - | - | - |
| 1777460109 | 22.22° C | 35% | 1013.2 hPa | 0 mm | - | - | - |
| 1777458909 | 22.22° C | 38% | 1013.6 hPa | 0 mm | - | - | - |
| 1777458629 | 22.22° C | 37% | 1013.9 hPa | 0 mm | - | - | - |
| 1777458313 | 22.22° C | 38% | 1013.9 hPa | 0 mm | - | - | - |
| 1777458013 | 21.11° C | 38% | 1013.9 hPa | 0 mm | - | - | - |
| 1777457714 | 21.11° C | 36% | 1014.2 hPa | 0 mm | - | - | - |
| 1777457412 | 21.11° C | 37% | 1014.2 hPa | 0 mm | - | - | - |
| 1777457109 | 21.11° C | 40% | 1014.2 hPa | 0 mm | - | - | - |
| 1777455914 | 22.22° C | 34% | 1014.2 hPa | 0 mm | - | - | - |
| 1777455613 | 22.22° C | 36% | 1014.2 hPa | 0 mm | - | - | - |
| 1777455308 | 22.22° C | 36% | 1013.9 hPa | 0 mm | - | - | - |
| 1777455027 | 22.22° C | 37% | 1013.9 hPa | 0 mm | - | - | - |
| 1777454709 | 21.11° C | 42% | 1013.6 hPa | 0 mm | - | - | - |
| 1777454413 | 21.11° C | 41% | 1013.9 hPa | 0 mm | - | - | - |
| 1777454114 | 21.11° C | 39% | 1013.9 hPa | 0 mm | - | - | - |
| 1777453814 | 21.11° C | 39% | 1013.9 hPa | 0 mm | - | - | - |
| 1777453509 | 21.11° C | 42% | 1013.9 hPa | 0 mm | - | - | - |
* Rain latest hour (hover to see other rain measurements)
** Current wind speed in m/s (hover to see current wind gust speed)